(200329) = 2003 WQ20 = 2000 GJ112

Discovered at Anderson Mesa on 2000-04-03 by LONEOS.

Orbit

Orbit type: Main Belt

Note: WebGL enabled browser required.

epoch2023-09-13.0
epoch JD2460200.5
perihelion date2020-12-21.00682
perihelion JD2459204.50682
argument of perihelion (°)131.95010
ascending node (°)24.39132
inclination (°)9.70516
eccentricity0.0911055
perihelion distance (AU)2.7557238
Tisserand w.r.t. Jupiter3.2
ΔV w.r.t. Earth (km/sec)10.8
semimajor axis (AU)3.0319513
mean anomaly (°)185.94174
mean daily motion (°/day)0.18668980
aphelion distance (AU)3.308
period (years)5.28
P-vector [x]-0.91155732
P-vector [y]0.30940659
P-vector [z]0.27079662
Q-vector [x]-0.40523661
Q-vector [y]-0.78754999
Q-vector [z]-0.46427180
absolute magnitude15.37
phase slope0.15
uncertainty0
referenceMPEC 2023-R58
observations used557
oppositions16
arc length (days)22993
first opposition used1960
last opposition used2023
residual rms (arc-secs)0.74
perturbers coarse indicatorM-v
perturbers precise indicator003Ek
first observation date used1960-09-24.0
last observation date used2023-09-07.0
computer nameMPCLINUX
JD of orbit computation2456670.681222
perihelion JD uncertainty (days)2.3936E-04
argument of perihelion uncertainty (°)5.3222E-05
ascending node uncertainty (°)2.6602E-05
inclination uncertainty (°)1.0353E-05
eccentricity uncertainty 9.5612E-08
perihelion distance uncertainty (AU)2.9221E-07
Minimum Orbit Intersection Distances (in AU)
for orbit epoch: 2460200.5, reference: E2023-SE5
Mercury2.37936
Venus2.0388
Earth1.77359
Mars1.10668
Jupiter1.68757
Saturn6.08815
Uranus15.696
Neptune26.6034

Observations

590 total observations over interval: 1960 09 24.43750 – 2023 09 20.407944
These data are available for download (format description).

Date (UT) J2000 RA J2000 Dec Magn Location Ref
1960 09 24.43750 00 51 56.38 +01 17 00.5 20.6   675 – Palomar Mountain MPS 285582
1960 09 24.46180 00 51 55.22 +01 16 56.5 19.8   675 – Palomar Mountain MPS 285582
1960 09 26.35694 00 50 25.45 +01 11 34.0 19.6   675 – Palomar Mountain MPS 285582
1960 09 26.37986 00 50 24.27 +01 11 30.8 19.7   675 – Palomar Mountain MPS 285582
1960 09 28.41742 00 48 46.09 +01 05 44.9 19.0   675 – Palomar Mountain MPS 285582
1960 09 28.43819 00 48 45.09 +01 05 41.9 20.2   675 – Palomar Mountain MPS 285582
2000 04 03.30944 12 32 59.23 +00 42 39.1 19.2 R 699 – Lowell Observatory-LONEOS MPS 12849
2000 04 03.33335 12 32 57.99 +00 42 42.2   699 – Lowell Observatory-LONEOS MPS 12849
2000 04 03.35726 12 32 56.71 +00 42 45.4   699 – Lowell Observatory-LONEOS MPS 12849
2000 04 03.38119 12 32 55.49 +00 42 45.7   699 – Lowell Observatory-LONEOS MPS 12849
2000 04 04.31647 12 32 07.33 +00 44 22.8 18.2   704 – Lincoln Laboratory ETS, New Mexico MPS 12849
2000 04 04.33078 12 32 06.62 +00 44 23.3 18.9   704 – Lincoln Laboratory ETS, New Mexico MPS 12849
2000 04 04.34509 12 32 05.76 +00 44 24.2 19.0   704 – Lincoln Laboratory ETS, New Mexico MPS 12849
2000 04 04.35939 12 32 05.00 +00 44 27.9 18.6   704 – Lincoln Laboratory ETS, New Mexico MPS 12849
2000 04 04.37370 12 32 04.33 +00 44 28.3 18.8   704 – Lincoln Laboratory ETS, New Mexico MPS 12849
2000 04 06.26817 12 30 27.75 +00 47 29.6 18.9 R 699 – Lowell Observatory-LONEOS MPS 12849
2000 04 06.28718 12 30 26.74 +00 47 31.8   699 – Lowell Observatory-LONEOS MPS 12849
2000 04 06.30609 12 30 25.81 +00 47 33.5   699 – Lowell Observatory-LONEOS MPS 12849
2000 04 06.32504 12 30 24.76 +00 47 35.0   699 – Lowell Observatory-LONEOS MPS 12849
2000 04 10.29965 12 27 07.44 +00 53 00.3 19.3   704 – Lincoln Laboratory ETS, New Mexico MPS 12849
2000 04 10.31407 12 27 06.80 +00 53 01.7 19.2   704 – Lincoln Laboratory ETS, New Mexico MPS 12849
2000 04 10.32847 12 27 06.07 +00 53 02.7 19.0   704 – Lincoln Laboratory ETS, New Mexico MPS 12849
2003 11 19.25963 03 57 35.97 +29 12 24.9 19.2   704 – Lincoln Laboratory ETS, New Mexico MPS 91164
2003 11 19.27219 03 57 35.26 +29 12 25.0 19.4   704 – Lincoln Laboratory ETS, New Mexico MPS 91164
2003 11 19.29728 03 57 33.77 +29 12 25.3 19.3   704 – Lincoln Laboratory ETS, New Mexico MPS 91164
2003 11 19.30998 03 57 32.99 +29 12 25.3 19.4   704 – Lincoln Laboratory ETS, New Mexico MPS 91164
2003 11 20.33078 03 56 32.75 +29 12 21.4 19.8 V 691 – Steward Observatory, Kitt Peak-Spacewatch MPS 91164
2003 11 20.36116 03 56 30.91 +29 12 21.0 20.0 V 691 – Steward Observatory, Kitt Peak-Spacewatch MPS 91164
2003 11 20.38809 03 56 29.27 +29 12 20.7 20.0 V 691 – Steward Observatory, Kitt Peak-Spacewatch MPS 91164
2003 11 24.25283 03 52 39.52 +29 11 05.2 18.9   704 – Lincoln Laboratory ETS, New Mexico MPS 91984
2003 11 24.26556 03 52 38.72 +29 11 04.3 19.3   704 – Lincoln Laboratory ETS, New Mexico MPS 91984
2003 11 24.27811 03 52 37.93 +29 11 03.1 19.3   704 – Lincoln Laboratory ETS, New Mexico MPS 91984
2003 11 24.29072 03 52 37.20 +29 11 05.1 19.3   704 – Lincoln Laboratory ETS, New Mexico MPS 91984
2003 11 24.30362 03 52 36.40 +29 11 02.4 19.2   704 – Lincoln Laboratory ETS, New Mexico MPS 91984
2003 12 28.24879 03 25 29.03 +28 15 54.7 19.6 R 699 – Lowell Observatory-LONEOS MPS 112576
2003 12 28.26464 03 25 28.33 +28 15 52.8   699 – Lowell Observatory-LONEOS MPS 112576
2003 12 28.28047 03 25 27.94 +28 15 49.6   699 – Lowell Observatory-LONEOS MPS 112576
2003 12 28.29628 03 25 27.59 +28 15 48.3   699 – Lowell Observatory-LONEOS MPS 112576
2005 03 11.22672 10 48 03.72 +18 44 11.7 18.4 R 703 – Catalina Sky Survey MPS 127771
2005 03 11.23223 10 48 03.49 +18 44 12.3 18.6 R 703 – Catalina Sky Survey MPS 127771
2005 03 11.23773 10 48 03.17 +18 44 12.5 18.8 R 703 – Catalina Sky Survey MPS 127771
2005 03 11.24325 10 48 02.93 +18 44 13.8 18.3 R 703 – Catalina Sky Survey MPS 127771
2005 03 11.27228 10 48 01.38 +18 44 14.6 18.9 R 703 – Catalina Sky Survey MPS 127771
2005 03 11.27977 10 48 00.95 +18 44 15.2 19.0 R 703 – Catalina Sky Survey MPS 127771
2005 03 11.28605 10 48 00.65 +18 44 15.3 18.6 R 699 – Lowell Observatory-LONEOS MPS 128909
2005 03 11.28723 10 48 00.62 +18 44 15.3 18.9 R 703 – Catalina Sky Survey MPS 127771
2005 03 11.29472 10 48 00.20 +18 44 16.6 18.7 R 703 – Catalina Sky Survey MPS 127771
2005 03 11.30230 10 47 59.79 +18 44 17.1   699 – Lowell Observatory-LONEOS MPS 128909
2005 03 11.31858 10 47 58.93 +18 44 17.8   699 – Lowell Observatory-LONEOS MPS 128909
2005 03 11.33484 10 47 58.15 +18 44 19.1   699 – Lowell Observatory-LONEOS MPS 128909
2005 03 16.28330 10 43 50.61 +18 48 08.8 18.8 R 703 – Catalina Sky Survey MPS 128909
2005 03 16.28382 10 43 50.65 +18 48 10.2 18.2 R 703 – Catalina Sky Survey MPS 128909
2005 03 16.29182 10 43 50.21 +18 48 09.8 18.8 R 703 – Catalina Sky Survey MPS 128909
2005 03 16.29236 10 43 50.23 +18 48 09.0 18.8 R 703 – Catalina Sky Survey MPS 128909
2005 03 16.30036 10 43 49.75 +18 48 09.8 20.1 R 703 – Catalina Sky Survey MPS 128909
2005 03 16.30090 10 43 49.79 +18 48 09.0 18.8 R 703 – Catalina Sky Survey MPS 128909
2005 03 16.30892 10 43 49.39 +18 48 09.7 18.8 R 703 – Catalina Sky Survey MPS 128909
2005 03 16.30946 10 43 49.33 +18 48 09.2 18.4 R 703 – Catalina Sky Survey MPS 128909
2008 09 23.43207 02 51 53.64 +18 28 41.2 20.2 V G96 – Mt. Lemmon Survey MPS 256509
2008 09 23.43892 02 51 53.49 +18 28 41.7 20.0 V G96 – Mt. Lemmon Survey MPS 256509
2008 09 23.44586 02 51 53.35 +18 28 42.5 20.2 V G96 – Mt. Lemmon Survey MPS 256509
2008 09 23.45273 02 51 53.20 +18 28 42.9 20.1 V G96 – Mt. Lemmon Survey MPS 256509
2008 09 24.34618 02 51 33.90 +18 29 53.2 19.8   704 – Lincoln Laboratory ETS, New Mexico MPS 256509
2008 09 24.37029 02 51 33.36 +18 29 55.6 20.5   704 – Lincoln Laboratory ETS, New Mexico MPS 256509
2008 09 24.38234 02 51 33.11 +18 29 58.3 20.8   704 – Lincoln Laboratory ETS, New Mexico MPS 256509
2008 10 06.42150 02 45 29.68 +18 38 42.7 19.9 V 691 – Steward Observatory, Kitt Peak-Spacewatch MPS 259079
2008 10 06.44208 02 45 28.89 +18 38 43.1 20.0 V 691 – Steward Observatory, Kitt Peak-Spacewatch MPS 259079
2008 10 06.45970 02 45 28.17 +18 38 43.1 20.0 V 691 – Steward Observatory, Kitt Peak-Spacewatch MPS 259079
2008 10 10.40336 02 42 51.30 +18 38 47.7 20.1 V G96 – Mt. Lemmon Survey MPS 259079
2008 10 10.40861 02 42 51.04 +18 38 47.4 19.9 V G96 – Mt. Lemmon Survey MPS 259079
2008 10 10.41384 02 42 50.83 +18 38 47.4 19.8 V G96 – Mt. Lemmon Survey MPS 259079
2008 10 10.41910 02 42 50.58 +18 38 47.3 20.0 V G96 – Mt. Lemmon Survey MPS 259079
2008 10 10.42750 02 42 50.17 +18 38 47.7 20.1 V 691 – Steward Observatory, Kitt Peak-Spacewatch MPS 259079
2008 10 10.44514 02 42 49.42 +18 38 47.1 20.3 V 691 – Steward Observatory, Kitt Peak-Spacewatch MPS 259079
2008 10 10.46277 02 42 48.64 +18 38 47.2 20.5 V 691 – Steward Observatory, Kitt Peak-Spacewatch MPS 259079
2008 10 19.24833 02 36 04.99 +18 34 04.5 20.0 V 691 – Steward Observatory, Kitt Peak-Spacewatch MPS 260484
2008 10 19.26595 02 36 04.10 +18 34 03.8 19.8 V 691 – Steward Observatory, Kitt Peak-Spacewatch MPS 260484
2008 10 19.28356 02 36 03.18 +18 34 03.1 20.0 V 691 – Steward Observatory, Kitt Peak-Spacewatch MPS 260484
2008 10 23.19592 02 32 44.74 +18 29 54.7 19.7 V 691 – Steward Observatory, Kitt Peak-Spacewatch MPS 260484
2008 10 23.21356 02 32 43.80 +18 29 52.8 19.5 V 691 – Steward Observatory, Kitt Peak-Spacewatch MPS 260484
2008 10 23.23119 02 32 42.88 +18 29 52.1 19.8 V 691 – Steward Observatory, Kitt Peak-Spacewatch MPS 260484
2008 10 24.15655 02 31 54.72 +18 28 43.1 19.9 V 691 – Steward Observatory, Kitt Peak-Spacewatch MPS 261253
2008 10 24.17421 02 31 53.81 +18 28 41.6 19.9 V 691 – Steward Observatory, Kitt Peak-Spacewatch MPS 261253
2008 10 24.19185 02 31 52.86 +18 28 40.9 19.7 V 691 – Steward Observatory, Kitt Peak-Spacewatch MPS 261253
2008 10 26.14828 02 30 09.76 +18 26 02.8 19.4 V 691 – Steward Observatory, Kitt Peak-Spacewatch MPS 261253
2008 10 26.16594 02 30 08.82 +18 26 01.0 19.7 V 691 – Steward Observatory, Kitt Peak-Spacewatch MPS 261253
2008 10 26.18360 02 30 07.87 +18 26 00.2 19.6 V 691 – Steward Observatory, Kitt Peak-Spacewatch MPS 261253
